This is the latest recevied weather packets stored in our database for station/object KN6CRX-10. If no packets are shown the sender has not sent any weather packets the latest 10 day(s).
| Time | Temp. | Humidity | Pressure | Rain* | Wind** | Luminosity | Snow |
|---|---|---|---|---|---|---|---|
| 1788433670 | 10° C | 60% | 1016.2 hPa | 0 mm | - | 0 W/m² | - |
| 1788433366 | 10° C | 62% | 1016.6 hPa | 0 mm | - | 0 W/m² | - |
| 1788433065 | 10° C | 65% | 1016.3 hPa | 0 mm | - | 0 W/m² | - |
| 1788432761 | 10° C | 64% | 1016.2 hPa | 0 mm | - | 0 W/m² | - |
| 1788432460 | 10° C | 65% | 1016.3 hPa | 0 mm | - | 0 W/m² | - |
| 1788432155 | 10.56° C | 63% | 1016.1 hPa | 0 mm | - | 0 W/m² | - |
| 1788431851 | 10.56° C | 63% | 1016.2 hPa | 0 mm | - | 0 W/m² | - |
| 1788431547 | 11.11° C | 58% | 1016.2 hPa | 0 mm | - | 0 W/m² | - |
| 1788431242 | 11.11° C | 58% | 1016.1 hPa | 0 mm | - | 0 W/m² | - |
| 1788430937 | 11.11° C | 56% | 1016.1 hPa | 0 mm | - | 0 W/m² | - |
| 1788430635 | 11.11° C | 57% | 1016.1 hPa | 0 mm | - | 0 W/m² | - |
| 1788430331 | 11.11° C | 57% | 1016 hPa | 0 mm | - | 0 W/m² | - |
| 1788430026 | 11.11° C | 59% | 1016 hPa | 0 mm | - | 0 W/m² | - |
| 1788429726 | 11.67° C | 55% | 1016.1 hPa | 0 mm | - | 0 W/m² | - |
| 1788429423 | 11.67° C | 56% | 1016.2 hPa | 0 mm | - | 0 W/m² | - |
| 1788429118 | 11.67° C | 59% | 1016 hPa | 0 mm | - | 0 W/m² | - |
| 1788428813 | 11.67° C | 55% | 1016 hPa | 0 mm | - | 0 W/m² | - |
| 1788428508 | 11.67° C | 54% | 1016.2 hPa | 0 mm | - | 0 W/m² | - |
| 1788428203 | 11.67° C | 52% | 1016 hPa | 0 mm | - | 0 W/m² | - |
| 1788427899 | 11.67° C | 54% | 1016 hPa | 0 mm | - | 0 W/m² | - |
| 1788427599 | 12.22° C | 53% | 1016.1 hPa | 0 mm | - | 0 W/m² | - |
| 1788427293 | 12.22° C | 57% | 1016 hPa | 0 mm | - | 0 W/m² | - |
| 1788426992 | 12.22° C | 50% | 1015.7 hPa | 0 mm | - | 0 W/m² | - |
| 1788426692 | 12.22° C | 49% | 1015.7 hPa | 0 mm | - | 0 W/m² | - |
| 1788426388 | 12.78° C | 50% | 1015.9 hPa | 0 mm | - | 0 W/m² | - |
* Rain latest hour (hover to see other rain measurements)
** Current wind speed in m/s (hover to see current wind gust speed)